Tracking 35237 objects as of 5-Sep-2026
HD Live streaming from Space Station
objects crossing your sky now

THOR ABLESTAR DEB

Track THOR ABLESTAR DEB now!
10-day predictions


NORAD ID: 541
Int'l Code: 1961-015GA
Launch date: June 29, 1961
Source: United States (US)
Launch site: AIR FORCE EASTERN TEST RANGE (AFETR)

Note: This is SATELLITE DEBRIS
Your satellite tracking list
Your tracking list is empty




NASA's NSSDC Master Catalog

Two Line Element Set (TLE):
1 00541U 61015GA  26248.25281362  .00000087  00000-0  13425-3 0  9997
2 00541  67.2173 212.8773 0080624 216.0619 143.5008 13.86414878283423
Source of the keplerian elements: AFSPC